Albuquerque, NM

1:20 AM MDT on August 21, 2017 (GMT -0600)
Albuquerque International Sunport

Weather History for KABQ - January, 2012

Change the Weather History Date:

Sunday, January 22, 2012

  Actual Average Record
Temperature  
Mean Temperature 41 °F 37 °F  
Max Temperature 49 °F 47 °F 66 °F (1950)
Min Temperature 33 °F 26 °F 3 °F (1918)
Degree Days  
Heating Degree Days 24 28  
Month to date heating degree days 552 638  
Since 1 July heating degree days 2278 2395  
Cooling Degree Days 0 0  
Month to date cooling degree days 0 0  
Year to date cooling degree days 0 0  
Moisture  
Dew Point 18 °F    
Average Humidity 41    
Maximum Humidity 59    
Minimum Humidity 23    
Precipitation  
Precipitation T in 0.01 in 0.56 in (1913)
Month to date precipitation 0.03 0.27  
Year to date precipitation 0.03 0.27  
Snow  
Snow 0.00 in - - ()
Month to date snowfall 0.0  
Since 1 July snowfall 4.3  
Snow Depth 0.00 in    
Sea Level Pressure  
Sea Level Pressure 29.90 in    
Wind  
Wind Speed 12 mph (NW)    
Max Wind Speed 33 mph    
Max Gust Speed 46 mph    
Visibility 10 miles    
Events Rain    
T = Trace of Precipitation, MM = Missing Value Source: NWS Daily Summary

Daily Weather History Graph

Daily Weather History Graph

Search for Another Location

Airport or City:

Trip Planner

Search our weather history database for the weather conditions in past years. The results will help you decide how hot, cold, wet, or windy it might be!

Date:

Astronomy

Jan. 22, 2012 Rise Set
Actual Time 7:11 AM MST 5:24 PM MST
Civil Twilight 6:44 AM MST 5:51 PM MST
Nautical Twilight 6:13 AM MST 6:22 PM MST
Astronomical Twilight 5:43 AM MST 6:52 PM MST
Moon 6:30 AM MST (1/22) 5:08 PM MST (1/22)
Length of Visible Light 11h 07m
Length of Day
10h 12m
Waning Crescent, 0% of the Moon is Illuminated
Jan 22
Waning Crescent
Jan 23
New
Jan 30
First Quarter
Feb 7
Full
Feb 14
Last Quarter

Hourly Weather History & Observations

Time (MST) Temp. Windchill Dew Point Humidity Pressure Visibility Wind Dir Wind Speed Gust Speed Precip Events Conditions
12:50 AM 39.2 °F 27.2 °F 28.4 °F 65% 29.76 in 10.0 mi WNW 31.1 mph 41.4 mph 0.00 in Rain Light Rain
12:56 AM 39.0 °F 28.8 °F 28.9 °F 67% 29.68 in 10.0 mi WNW 21.9 mph 38.0 mph 0.00 in Rain Light Rain
1:56 AM 39.0 °F 32.8 °F 26.1 °F 60% 29.69 in 10.0 mi West 9.2 mph - 0.00 in   Overcast
2:56 AM 37.0 °F 29.3 °F 25.0 °F 62% 29.69 in 10.0 mi WSW 11.5 mph - N/A   Scattered Clouds
3:56 AM 36.0 °F 26.7 °F 19.9 °F 52% 29.67 in 10.0 mi West 15.0 mph - N/A   Scattered Clouds
4:56 AM 35.1 °F 26.9 °F 19.9 °F 54% 29.68 in 10.0 mi West 11.5 mph 25.3 mph N/A   Scattered Clouds
5:56 AM 36.0 °F 29.0 °F 19.0 °F 50% 29.71 in 10.0 mi West 9.2 mph - N/A   Scattered Clouds
6:56 AM 35.1 °F 27.4 °F 19.0 °F 52% 29.75 in 10.0 mi West 10.4 mph - N/A   Partly Cloudy
7:56 AM 35.1 °F 31.0 °F 19.9 °F 54% 29.80 in 10.0 mi WSW 4.6 mph - N/A   Partly Cloudy
8:56 AM 39.9 °F - 19.0 °F 43% 29.83 in 10.0 mi Calm Calm - N/A   Partly Cloudy
9:56 AM 43.0 °F 34.5 °F 18.0 °F 37% 29.88 in 10.0 mi NW 19.6 mph 24.2 mph N/A   Partly Cloudy
10:56 AM 45.0 °F 36.2 °F 16.0 °F 31% 29.89 in 10.0 mi WNW 24.2 mph 29.9 mph N/A   Partly Cloudy
11:56 AM 46.0 °F 38.5 °F 15.1 °F 29% 29.90 in 10.0 mi NW 19.6 mph - N/A   Partly Cloudy
12:56 PM 46.9 °F - 12.9 °F 25% 29.90 in 10.0 mi WNW 21.9 mph 35.7 mph N/A   Scattered Clouds
1:56 PM 46.0 °F 38.3 °F 15.1 °F 29% 29.92 in 10.0 mi NNW 20.7 mph 33.4 mph N/A   Scattered Clouds
2:56 PM 46.9 °F - 14.0 °F 27% 29.95 in 10.0 mi NNW 10.4 mph 19.6 mph N/A   Scattered Clouds
3:56 PM 48.0 °F - 12.9 °F 24% 29.98 in 10.0 mi NW 13.8 mph - N/A   Scattered Clouds
4:56 PM 46.9 °F - 10.0 °F 22% 30.01 in 10.0 mi NNW 16.1 mph - N/A   Scattered Clouds
5:56 PM 44.1 °F 37.7 °F 10.9 °F 26% 30.06 in 10.0 mi NNW 12.7 mph - N/A   Scattered Clouds
6:56 PM 41.0 °F 34.3 °F 14.0 °F 33% 30.10 in 10.0 mi North 11.5 mph - N/A   Scattered Clouds
7:56 PM 39.9 °F 32.5 °F 15.1 °F 36% 30.12 in 10.0 mi North 12.7 mph - N/A   Scattered Clouds
8:56 PM 39.0 °F 32.8 °F 16.0 °F 39% 30.11 in 10.0 mi North 9.2 mph - N/A   Mostly Cloudy
9:56 PM 37.9 °F 33.5 °F 16.0 °F 41% 30.11 in 10.0 mi NNW 5.8 mph - N/A   Mostly Cloudy
10:56 PM 36.0 °F 31.1 °F 16.0 °F 44% 30.11 in 10.0 mi NNW 5.8 mph - N/A   Partly Cloudy
11:56 PM 33.1 °F - 17.1 °F 52% 30.11 in 10.0 mi Calm Calm - N/A   Clear